TimeCDT,TemperatureF,Dew PointF,Humidity,Sea Level PressureIn,VisibilityMPH,Wind Direction,Wind SpeedMPH,Gust SpeedMPH,PrecipitationIn,Events,Conditions,WindDirDegrees,DateUTC
12:53 AM,57.9,55.9,93,30.03,6.0,Calm,Calm,-,N/A,,Clear,0,2013-05-08 05:53:00
1:53 AM,57.0,55.0,93,30.02,6.0,Calm,Calm,-,N/A,,Clear,0,2013-05-08 06:53:00
2:53 AM,57.0,55.0,93,30.02,8.0,Calm,Calm,-,N/A,,Clear,0,2013-05-08 07:53:00
3:53 AM,55.9,54.0,93,30.02,5.0,Calm,Calm,-,N/A,,Clear,0,2013-05-08 08:53:00
4:53 AM,55.9,54.0,93,30.01,9.0,Calm,Calm,-,N/A,,Clear,0,2013-05-08 09:53:00
5:53 AM,55.9,54.0,93,30.03,8.0,Calm,Calm,-,N/A,,Clear,0,2013-05-08 10:53:00
6:53 AM,55.9,54.0,93,30.05,5.0,Calm,Calm,-,N/A,,Clear,0,2013-05-08 11:53:00
7:53 AM,62.1,57.9,86,30.06,9.0,SSE,3.5,-,N/A,,Clear,150,2013-05-08 12:53:00
8:53 AM,68.0,57.9,70,30.08,10.0,South,4.6,-,N/A,,Clear,190,2013-05-08 13:53:00
9:53 AM,73.0,57.9,59,30.10,10.0,SW,5.8,-,N/A,,Clear,220,2013-05-08 14:53:00
10:53 AM,75.0,55.9,51,30.11,10.0,Variable,3.5,-,N/A,,Clear,0,2013-05-08 15:53:00
11:53 AM,78.1,55.9,46,30.09,10.0,NNE,3.5,-,N/A,,Clear,20,2013-05-08 16:53:00
12:53 PM,79.0,57.0,47,30.08,10.0,NW,5.8,-,N/A,,Mostly Cloudy,320,2013-05-08 17:53:00
1:53 PM,80.1,55.9,43,30.07,10.0,SE,5.8,-,N/A,,Partly Cloudy,130,2013-05-08 18:53:00
2:53 PM,81.0,55.9,42,30.06,10.0,South,3.5,-,N/A,,Scattered Clouds,180,2013-05-08 19:53:00
3:53 PM,81.0,55.9,42,30.04,10.0,Variable,3.5,-,N/A,,Scattered Clouds,0,2013-05-08 20:53:00
4:53 PM,81.0,55.9,42,30.03,10.0,East,3.5,-,N/A,,Mostly Cloudy,100,2013-05-08 21:53:00
5:53 PM,81.0,53.1,38,30.02,10.0,Calm,Calm,-,N/A,,Partly Cloudy,0,2013-05-08 22:53:00
6:53 PM,80.1,54.0,40,30.02,10.0,West,4.6,-,N/A,,Clear,270,2013-05-08 23:53:00
7:53 PM,73.9,57.0,55,30.03,10.0,North,-9999.0,-,N/A,,Clear,0,2013-05-09 00:53:00
8:53 PM,70.0,57.9,65,30.03,10.0,Calm,Calm,-,N/A,,Clear,0,2013-05-09 01:53:00
9:53 PM,68.0,59.0,73,30.04,10.0,Calm,Calm,-,N/A,,Clear,0,2013-05-09 02:53:00
10:53 PM,64.0,59.0,84,30.04,10.0,Calm,Calm,-,N/A,,Clear,0,2013-05-09 03:53:00
11:53 PM,64.0,59.0,84,30.03,10.0,Calm,Calm,-,N/A,,Clear,0,2013-05-09 04:53:00